Hourly Weather Bhopal

Today, 30 September, Wednesday

Time Temperature Precipitation Wind Pressure Humidity
00:00 +26°C° 0 mm 1 mps 712 mmHg 72%
01:00 +25°C° 0 mm 1 mps 712 mmHg 73%
02:00 +25°C° 0 mm 1 mps 711 mmHg 75%
03:00 +25°C° 0 mm 2 mps 711 mmHg 77%
04:00 +24°C° 0 mm 2 mps 711 mmHg 80%
05:00 +24°C° 0 mm 3 mps 711 mmHg 84%
06:00 +25°C° 0 mm 3 mps 712 mmHg 81%
07:00 +26°C° 0 mm 3 mps 713 mmHg 78%
08:00 +27°C° 0 mm 3 mps 714 mmHg 75%
09:00 +28°C° 0 mm 3 mps 714 mmHg 69%
10:00 +30°C° 0 mm 3 mps 713 mmHg 63%
11:00 +33°C° 0 mm 3 mps 713 mmHg 56%
12:00 +33°C° 0 mm 3 mps 713 mmHg 54%
13:00 +34°C° 0 mm 3 mps 712 mmHg 51%
14:00 +34°C° 0 mm 3 mps 711 mmHg 48%
15:00 +33°C° 0 mm 3 mps 711 mmHg 52%
16:00 +31°C° 0 mm 2 mps 711 mmHg 56%
17:00 +30°C° 0 mm 2 mps 711 mmHg 61%
18:00 +29°C° 0 mm 2 mps 711 mmHg 61%
19:00 +28°C° 0 mm 2 mps 712 mmHg 61%
20:00 +27°C° 0 mm 2 mps 712 mmHg 61%
21:00 +27°C° 0 mm 2 mps 712 mmHg 62%
22:00 +26°C° 0 mm 1 mps 712 mmHg 62%
23:00 +26°C° 0 mm 1 mps 712 mmHg 62%

Tomorrow, 1 October, Thursday

Time Temperature Precipitation Wind Pressure Humidity
00:00 +26°C° 0 mm 1 mps 712 mmHg 65%
01:00 +25°C° 0 mm 2 mps 711 mmHg 67%
02:00 +25°C° 0 mm 2 mps 711 mmHg 70%
03:00 +24°C° 0 mm 2 mps 711 mmHg 73%
04:00 +24°C° 0 mm 3 mps 711 mmHg 77%
05:00 +24°C° 0 mm 3 mps 711 mmHg 81%
06:00 +25°C° 0 mm 3 mps 712 mmHg 78%
07:00 +26°C° 0 mm 4 mps 712 mmHg 75%
08:00 +27°C° 0 mm 4 mps 713 mmHg 72%
09:00 +29°C° 0 mm 4 mps 713 mmHg 66%
10:00 +30°C° 0 mm 4 mps 713 mmHg 60%
11:00 +33°C° 0 mm 5 mps 713 mmHg 54%
12:00 +33°C° 0 mm 4 mps 713 mmHg 52%
13:00 +34°C° 0 mm 4 mps 712 mmHg 49%
14:00 +34°C° 0 mm 4 mps 711 mmHg 47%
15:00 +33°C° 0 mm 4 mps 711 mmHg 51%
16:00 +31°C° 0 mm 3 mps 711 mmHg 56%
17:00 +30°C° 0 mm 3 mps 710 mmHg 60%
18:00 +29°C° 0 mm 2 mps 711 mmHg 59%
19:00 +28°C° 0 mm 2 mps 711 mmHg 58%
20:00 +27°C° 0 mm 2 mps 712 mmHg 56%
21:00 +27°C° 0 mm 2 mps 712 mmHg 58%
22:00 +26°C° 0 mm 3 mps 712 mmHg 60%
23:00 +26°C° 0 mm 3 mps 712 mmHg 62%

Day after tomorrow, 2 October, Friday

Time Temperature Precipitation Wind Pressure Humidity
00:00 +25°C° 0 mm 3 mps 711 mmHg 65%
01:00 +25°C° 0 mm 4 mps 711 mmHg 67%
02:00 +25°C° 0 mm 4 mps 711 mmHg 70%
03:00 +24°C° 0 mm 3 mps 711 mmHg 71%
04:00 +24°C° 0 mm 3 mps 711 mmHg 72%
05:00 +24°C° 0 mm 3 mps 711 mmHg 74%
06:00 +25°C° 0 mm 3 mps 712 mmHg 72%
07:00 +26°C° 0 mm 4 mps 712 mmHg 71%
08:00 +27°C° 0 mm 4 mps 713 mmHg 70%
09:00 +29°C° 0 mm 4 mps 713 mmHg 64%
10:00 +30°C° 0 mm 5 mps 713 mmHg 58%
11:00 +33°C° 0 mm 5 mps 713 mmHg 52%
12:00 +34°C° 0 mm 5 mps 713 mmHg 51%
13:00 +34°C° 0 mm 5 mps 712 mmHg 51%
14:00 +34°C° 0 mm 5 mps 712 mmHg 50%
15:00 +33°C° 0 mm 4 mps 711 mmHg 54%
16:00 +31°C° 0 mm 3 mps 711 mmHg 59%
17:00 +30°C° 0 mm 3 mps 711 mmHg 63%
18:00 +29°C° 0 mm 2 mps 711 mmHg 63%
19:00 +28°C° 0 mm 2 mps 712 mmHg 63%
20:00 +27°C° 0 mm 2 mps 712 mmHg 64%
21:00 +27°C° 0 mm 2 mps 712 mmHg 67%
22:00 +26°C° 0 mm 3 mps 712 mmHg 71%
23:00 +26°C° 0 mm 3 mps 712 mmHg 74%

3 October, Saturday

Time Temperature Precipitation Wind Pressure Humidity
00:00 +25°C° 0 mm 3 mps 711 mmHg 75%
01:00 +25°C° 0 mm 4 mps 711 mmHg 76%
02:00 +25°C° 0 mm 4 mps 711 mmHg 76%
03:00 +23°C° 0 mm 4 mps 711 mmHg 77%
04:00 +24°C° 0 mm 3 mps 711 mmHg 77%
05:00 +24°C° 0 mm 3 mps 711 mmHg 78%
06:00 +25°C° 0 mm 3 mps 712 mmHg 74%
07:00 +26°C° 0 mm 3 mps 713 mmHg 70%
08:00 +27°C° 0 mm 4 mps 713 mmHg 66%
09:00 +29°C° 0 mm 4 mps 713 mmHg 60%
10:00 +32°C° 0 mm 4 mps 714 mmHg 55%
11:00 +33°C° 0 mm 5 mps 714 mmHg 50%
12:00 +34°C° 0 mm 5 mps 713 mmHg 48%
13:00 +34°C° 0 mm 5 mps 712 mmHg 46%
14:00 +35°C° 0 mm 5 mps 712 mmHg 44%
15:00 +33°C° 0 mm 4 mps 712 mmHg 49%
16:00 +32°C° 0 mm 4 mps 711 mmHg 54%
17:00 +30°C° 0 mm 3 mps 711 mmHg 59%
18:00 +29°C° 0 mm 2 mps 712 mmHg 59%
19:00 +28°C° 0 mm 2 mps 712 mmHg 58%
20:00 +27°C° 0 mm 1 mps 713 mmHg 57%
21:00 +27°C° 0 mm 2 mps 713 mmHg 59%
22:00 +26°C° 0 mm 2 mps 713 mmHg 61%
23:00 +26°C° 0 mm 3 mps 713 mmHg 62%

4 October, Sunday

Time Temperature Precipitation Wind Pressure Humidity
00:00 +25°C° 0 mm 3 mps 713 mmHg 65%
01:00 +25°C° 0 mm 3 mps 712 mmHg 67%
02:00 +25°C° 0 mm 4 mps 712 mmHg 69%
03:00 +23°C° 0 mm 4 mps 712 mmHg 70%
04:00 +24°C° 0 mm 3 mps 712 mmHg 71%
05:00 +24°C° 0 mm 3 mps 712 mmHg 72%
06:00 +25°C° 0 mm 4 mps 713 mmHg 69%
07:00 +26°C° 0 mm 4 mps 714 mmHg 66%
08:00 +27°C° 0 mm 4 mps 714 mmHg 64%
09:00 +29°C° 0 mm 4 mps 714 mmHg 59%
10:00 +32°C° 0 mm 4 mps 714 mmHg 54%
11:00 +33°C° 0 mm 4 mps 715 mmHg 49%
12:00 +34°C° 0 mm 5 mps 714 mmHg 47%
13:00 +34°C° 0 mm 5 mps 713 mmHg 45%
14:00 +34°C° 0 mm 5 mps 713 mmHg 43%
15:00 +33°C° 0 mm 4 mps 712 mmHg 47%
16:00 +31°C° 0 mm 3 mps 712 mmHg 51%
17:00 +30°C° 0 mm 2 mps 712 mmHg 55%
18:00 +29°C° 0 mm 2 mps 712 mmHg 55%
19:00 +28°C° 0 mm 2 mps 712 mmHg 54%
20:00 +27°C° 0 mm 2 mps 712 mmHg 54%
21:00 +26°C° 0 mm 2 mps 713 mmHg 55%
22:00 +26°C° 0 mm 3 mps 713 mmHg 57%
23:00 +25°C° 0 mm 3 mps 713 mmHg 58%

5 October, Monday

Time Temperature Precipitation Wind Pressure Humidity
00:00 +25°C° 0 mm 3 mps 712 mmHg 61%
01:00 +23°C° 0 mm 4 mps 712 mmHg 63%
02:00 +23°C° 0 mm 4 mps 712 mmHg 66%
03:00 +23°C° 0 mm 4 mps 712 mmHg 69%
04:00 +23°C° 0 mm 4 mps 712 mmHg 72%
05:00 +22°C° 0 mm 4 mps 712 mmHg 76%
06:00 +25°C° 0 mm 4 mps 712 mmHg 72%
07:00 +26°C° 0 mm 4 mps 713 mmHg 69%
08:00 +27°C° 0 mm 5 mps 713 mmHg 66%
09:00 +29°C° 0 mm 5 mps 714 mmHg 60%
10:00 +30°C° 0 mm 5 mps 714 mmHg 54%
11:00 +33°C° 0 mm 5 mps 714 mmHg 48%
12:00 +34°C° 0 mm 5 mps 713 mmHg 47%
13:00 +34°C° 0 mm 5 mps 713 mmHg 45%
14:00 +34°C° 0 mm 5 mps 712 mmHg 43%
15:00 +33°C° 0 mm 4 mps 712 mmHg 48%
16:00 +32°C° 0 mm 4 mps 711 mmHg 52%
17:00 +30°C° 0 mm 3 mps 711 mmHg 57%
18:00 +29°C° 0 mm 3 mps 712 mmHg 57%
19:00 +28°C° 0 mm 2 mps 712 mmHg 58%
20:00 +27°C° 0 mm 2 mps 712 mmHg 58%
21:00 +26°C° 0 mm 2 mps 712 mmHg 58%
22:00 +26°C° 0 mm 3 mps 712 mmHg 59%
23:00 +25°C° 0 mm 3 mps 712 mmHg 59%
Show more

We Need Your Consent

Meteoprog and our Service Providers may store and access personal data such as cookies, device identifiers or other similar technologies on your device and process such data to personalise content and ads, as well as provide social media features and to analyse the traffic.

  • Store and/or access information on your device

    Cookies, device identifiers or other information can be stored or accessed on your device for the purposes indicated above.

  • Personalised ads and content, ad and content measurement, audience insights, and products development

    Ads and content can be personalised based on a profile. More data can be added to better personalise ads and content. Ad and content performance can be measured. Insights about the audience who saw the ads and content can be derived. Such data can be used to develop or improve user’s experience, systems and software.

By clicking ‘I Agree’ you will allow the use of indicated cookies, device identifiers, web beacons or other similar technologies. Your settings can be changed in the browser on your device.

For certain purposes, legitimate interests may be relied on, rather than consent. You can read more about this in our Privacy and Cookie Policy.